Tracking 28356 objects as of 8-Dec-2023
HD Live streaming from Space Station
objects crossing your sky now

TITAN 34B R/B

Track TITAN 34B R/B now!


NORAD ID: 17507
Int'l Code: 1987-015B
Perigee: 1,345.8 km
Apogee: 38,264.0 km
Inclination: 63.1 °
Period: 702.4 minutes
Semi major axis: 26175 km
RCS: Unknown
Launch date: February 12, 1987
Source: United States (US)
Launch site: AIR FORCE WESTERN TEST RANGE (AFWTR)

Note: This is a ROCKET BODY
Your satellite tracking list
Your tracking list is empty




NASA's NSSDC Master Catalog

Two Line Element Set (TLE):
1 17507U 87015B   23335.68256076 -.00000899  00000-0 -37480-2 0  9999
2 17507  63.0593 230.3199 7051953 266.8365  17.7936  2.04998662 33477
Source of the keplerian elements: AFSPC